CAPE
0 0 0 0 1 1 1 2 2 1 1 1 1 1 0 0 0 0 0 0 0 0 0 0 0 0 1 5 11 245 674 680 268 101 290 176 680 575 558 572 575 666 414 189 149
0 0 0 0 0 1 1 1 0 1 0 0 0 1 0 0 0 0 0 0 0 0 0 0 0 0 0 5 42 46 694 567 345 285 6 267 598 535 518 459 587 754 405 170 103
0 0 0 0 0 1 1 1 0 0 0 0 0 1 0 0 0 0 0 0 0 0 0 0 0 0 0 2 9 14 83 569 189 270 132 122 561 410 442 385 501 541 294 149 110
0 0 1 0 0 1 1 0 0 0 0 0 0 0 0 0 0 0 0 0 0 0 0 0 0 0 0 2 8 5 26 64 28 524 524 315 276 332 105 114 551 527 224 196 150
0 1 2 2 1 0 0 0 0 0 0 0 0 0 0 0 0 0 0 0 0 0 0 0 0 0 0 0 3 6 19 19 292 594 270 0 212 9 0 0 452 474 197 192 165
2 4 4 4 2 1 1 0 0 0 0 0 0 0 0 0 0 0 0 0 0 0 0 0 0 0 0 0 0 5 0 16 270 476 674 129 150 111 175 271 593 361 190 150 203
2 4 4 4 0 0 0 0 0 0 0 0 0 0 0 0 0 0 0 0 0 0 0 0 0 0 0 0 0 0 0 0 6 520 464 264 178 241 455 345 417 471 277 228 243
3 4 3 3 1 0 0 0 0 0 0 0 0 0 0 0 0 0 0 0 0 0 0 0 0 0 0 0 0 0 0 0 0 31 430 363 420 123 457 568 492 576 308 302 275
3 4 4 4 1 1 0 0 0 0 0 0 0 0 0 0 0 0 0 0 0 0 0 0 0 0 0 0 0 0 0 0 0 10 124 438 325 249 287 502 574 547 396 339 363
3 2 3 2 0 0 0 0 0 0 0 0 0 0 0 0 0 0 0 0 0 0 0 0 0 0 0 0 0 0 0 0 0 0 48 169 227 269 87 221 529 485 500 349 263
4 2 3 1 0 0 0 0 0 0 0 0 0 0 0 0 0 0 0 0 0 0 0 0 0 0 0 0 0 0 0 0 0 0 43 57 100 30 79 35 37 448 719 444 354
5 2 2 1 0 0 0 0 0 0 0 0 0 0 0 0 0 0 0 0 0 0 0 0 0 0 0 0 0 0 0 0 0 0 97 331 8 0 0 0 2 431 471 682 389
4 1 0 0 0 0 0 0 0 0 0 0 0 0 0 0 0 0 0 0 0 0 0 0 0 0 0 0 0 0 0 0 0 0 81 90 50 18 0 23 197 518 321 473 609
1 0 0 1 0 0 0 0 0 0 0 0 0 0 0 0 0 0 0 0 0 0 0 0 0 0 0 0 0 0 0 0 0 0 0 15 140 0 33 194 14 10 397 371 612
0 0 0 0 0 0 0 0 0 0 0 0 0 0 0 0 0 0 0 0 0 0 0 0 0 0 0 0 0 0 0 0 0 0 0 0 7 206 168 9 4 0 296 281 487
0 0 0 0 0 0 0 0 0 0 0 0 0 0 0 0 0 0 0 0 0 0 0 0 0 0 0 0 0 0 0 0 0 0 0 0 0 0 247 13 0 0 119 387 268
0 0 0 0 0 0 0 0 0 0 0 0 0 0 0 0 0 0 0 0 0 0 0 0 0 0 0 0 0 0 0 0 0 0 0 0 0 0 32 124 0 0 267 687 578
0 0 0 0 0 0 0 0 0 6 1 0 0 0 0 0 0 0 0 0 0 0 0 0 0 0 0 0 0 0 0 0 0 0 0 0 0 0 0 309 297 128 69 25 809
0 0 0 0 0 0 0 1 7 0 0 0 0 0 0 0 0 0 0 0 0 0 0 0 0 0 0 0 0 0 0 0 0 0 0 0 0 0 0 0 484 78 29 8 122
0 0 0 0 0 0 0 5 0 0 0 0 0 0 0 3 0 0 0 0 0 0 0 0 0 0 0 0 0 0 0 1 0 0 0 0 0 0 0 0 0 186 157 175 58
0 0 0 0 0 0 18 0 0 0 0 0 0 0 0 0 0 0 0 0 0 0 0 0 0 0 0 0 0 0 0 0 1 13 0 0 0 0 30 0 0 327 159 2 0
0 10 0 0 0 1 0 0 0 0 0 0 0 0 0 0 0 0 5 4 0 0 0 0 0 0 0 0 0 0 0 0 16 1 6 2 0 0 0 10 0 0 259 160 91
3 0 0 0 1 5 0 0 0 0 0 0 0 0 0 0 0 0 0 0 0 0 0 1 0 0 0 0 0 0 0 0 0 0 23 22 0 0 4 16 26 0 3 354 476
9 20 1 0 0 0 0 1 2 0 0 0 0 0 0 0 0 0 1 3 0 0 0 0 0 0 4 0 0 0 0 0 0 5 0 0 0 0 23 1 17 15 43 55 508
0 0 0 0 0 0 0 1 0 0 0 0 4 0 2 4 10 10 8 17 16 34 0 0 2 7 0 0 0 0 0 0 0 0 4 0 0 0 72 100 17 83 133 79 62
0 1 0 0 0 0 0 0 0 0 0 2 2 3 4 17 14 14 10 24 47 39 50 51 43 36 15 5 2 0 0 0 0 0 0 0 0 0 0 10 11 106 332 370 515
0 0 2 0 0 0 0 4 0 2 1 1 2 4 7 15 7 2 1 5 13 35 81 124 227 119 60 27 17 8 1 1 0 0 0 0 0 0 0 56 1 115 189 203 328
CIN
0 0 0 0 0 0 0 0 0 0 0 0 0 0 0 0 0 0 0 0 0 0 0 0 0 0 0 0 -1 -4 0 -1 -3 -206 -32 -224 -1 -6 -20 -1 -1 -11 -50 -66 -50
0 0 0 0 0 0 0 0 0 0 0 0 0 0 0 0 0 0 0 0 0 0 0 0 0 0 0 0 -37 -15 0 -9 -33 -34 -60 -60 -10 -1 -3 -6 -4 -4 -36 -51 -59
0 0 0 0 0 0 0 0 0 0 0 0 0 0 0 0 0 0 0 0 0 0 0 0 0 0 0 0 -105 -39 -29 -87 -126 -65 -156 -73 -2 0 -3 -8 -44 -85 -56 -73 -59
0 0 0 0 0 0 0 0 0 0 0 0 0 0 0 0 0 0 0 0 0 0 0 0 0 0 0 0 0 -5 -78 -53 -71 -7 -13 -159 -114 -57 -113 -218 -17 -87 -104 -72 -50
0 0 0 0 0 0 0 0 0 0 0 0 0 0 0 0 0 0 0 0 0 0 0 0 0 0 0 0 -1 0 -32 -27 -62 -3 -106 -26 -146 -399 0 0 -9 -78 -89 -58 -45
0 0 0 0 0 0 0 0 0 0 0 0 0 0 0 0 0 0 0 0 0 0 0 0 0 0 0 0 0 -2 -1 -15 -4 -3 -39 -81 -123 -59 -122 -176 -4 -80 -81 -39 -27
0 0 0 0 0 0 0 0 0 0 0 0 0 0 0 0 0 0 0 0 0 0 0 0 0 0 0 0 0 0 0 0 -2 -7 -2 -12 -35 -21 -34 -6 -1 -38 -33 -47 -18
0 0 0 0 0 0 0 0 0 0 0 0 0 0 0 0 0 0 0 0 0 0 0 0 0 0 0 0 0 0 0 0 0 -34 -4 -2 -2 -74 -58 -12 -1 -4 -32 -24 -21
0 0 0 0 0 0 0 0 0 0 0 0 0 0 0 0 0 0 0 0 0 0 0 0 0 0 0 0 0 0 0 0 0 -17 -1 -4 -68 -115 -271 -94 -1 0 -12 -19 -15
0 0 0 0 0 0 0 0 0 0 0 0 0 0 0 0 0 0 0 0 0 0 0 0 0 0 0 0 0 0 0 0 0 0 -5 -1 -116 -129 -134 -147 -2 0 -3 -14 -21
0 0 0 0 0 0 0 0 0 0 0 0 0 0 0 0 0 0 0 0 0 0 0 0 0 0 0 0 0 0 0 0 0 0 -2 -6 -169 -220 -172 -214 -276 -5 0 -7 -15
0 0 0 0 0 0 0 0 0 0 0 0 0 0 0 0 0 0 0 0 0 0 0 0 0 0 0 0 0 0 0 0 0 0 -1 -64 -70 0 0 -77 -51 -2 -1 0 -6
0 0 0 0 0 0 0 0 0 0 0 0 0 0 0 0 0 0 0 0 0 0 0 0 0 0 0 0 0 0 0 0 0 0 -1 -2 -222 -170 0 -74 -187 -22 -1 -1 -1
0 0 0 0 0 0 0 0 0 0 0 0 0 0 0 0 0 0 0 0 0 0 0 0 0 0 0 0 0 0 0 0 0 0 0 -1 -2 0 -99 -165 -20 -56 -2 -1 0
0 0 0 0 0 0 0 0 0 0 0 0 0 0 0 0 0 0 0 0 0 0 0 0 0 0 0 0 0 0 0 0 0 0 0 0 -1 -29 -126 -232 -264 0 -19 -2 0
0 0 0 0 0 0 0 0 0 0 0 0 0 0 0 0 0 0 0 0 0 0 0 0 0 0 0 0 0 0 0 0 0 0 0 0 0 0 -71 -38 0 0 -147 -4 -2
0 0 0 0 0 0 0 0 0 0 0 0 0 0 0 0 0 0 0 0 0 0 0 0 0 0 0 0 0 0 0 0 0 0 0 0 0 0 -6 -188 -29 -120 -157 -1 -6
0 0 0 0 0 0 0 0 0 -1 -2 0 0 0 0 0 0 0 0 0 0 0 0 0 0 0 0 0 0 0 0 0 0 0 0 0 0 0 0 -30 -175 -232 -228 -9 -1
0 0 0 0 0 0 0 -1 -4 0 0 0 0 0 0 0 0 0 0 0 0 0 0 0 0 0 0 0 0 0 0 0 0 0 0 0 0 0 0 0 -25 -141 -181 -129 -118
0 0 0 0 0 0 0 -5 0 0 0 0 0 0 0 0 0 0 0 0 0 0 0 0 0 0 0 0 0 0 0 0 0 0 0 0 0 0 0 0 0 -38 -236 -227 -141
0 0 0 0 0 0 -11 0 0 0 0 0 0 0 0 0 0 0 0 0 0 0 0 0 0 0 0 0 0 0 0 0 -1 0 0 0 0 0 -6 0 0 -38 -179 -175 0
0 -38 0 0 -26 0 0 0 0 0 0 0 0 0 0 0 0 0 0 -3 0 0 0 0 0 0 0 0 0 0 0 0 0 -1 -2 0 0 0 -1 -9 0 -1 -148 -229 -299
-218 0 0 0 0 0 0 0 0 0 0 0 0 0 0 0 0 0 0 0 0 0 0 -1 0 0 0 0 0 0 0 0 0 0 -4 -1 -1 0 -8 -17 -6 0 -4 -45 -311
-115 -27 0 0 0 0 0 0 0 0 0 0 0 0 0 0 0 0 0 -1 0 0 -1 0 0 0 0 0 0 0 0 0 0 0 0 0 0 0 -6 -8 -48 -25 -6 -5 -12
0 0 0 0 0 0 0 0 0 0 0 0 0 0 0 0 0 -1 -1 -1 -1 -5 0 0 0 0 0 0 0 0 0 0 0 0 -5 0 0 0 -38 -69 -89 -279 -81 -6 -8
0 0 0 0 0 0 0 0 0 0 0 0 0 0 0 0 0 0 0 -1 -1 -2 -5 -1 0 -1 0 -1 0 0 0 0 0 0 0 0 0 0 -14 -25 -193 -168 -212 -55 -37
0 0 0 0 0 0 0 0 0 0 0 0 0 0 0 0 0 0 0 -1 -1 -6 0 0 -1 -1 -1 0 -2 0 0 0 0 0 0 0 0 0 0 -17 -64 -88 -143 -209 -28
Wind_Speed
20 20 19 20 20 19 19 18 16 14 13 13 13 12 10 9 10 10 12 3 10 3 2 12 16 19 19 15 14 5 6 8 2 9 16 29 12 10 12 15 15 6 20 26 27
21 21 21 21 21 20 19 18 16 14 13 12 11 11 9 7 12 16 7 8 4 2 11 17 18 20 15 18 15 11 7 8 12 2 5 6 16 17 15 18 14 18 22 28 28
22 22 22 23 22 21 20 18 17 16 13 12 11 9 6 8 10 4 9 7 5 6 16 19 18 18 18 14 19 19 16 9 18 18 18 18 12 12 18 15 20 25 27 30 27
23 23 23 24 23 22 20 19 18 17 15 11 10 7 4 10 3 9 12 10 7 11 17 20 19 20 17 19 19 18 17 15 6 10 10 8 10 13 19 6 12 26 28 26 25
22 22 22 23 24 23 21 20 19 17 14 9 8 5 5 9 5 13 12 11 11 14 19 19 20 18 18 18 18 18 18 7 7 8 7 5 7 11 13 18 13 26 26 27 22
23 22 22 22 23 22 21 19 18 16 10 7 7 5 7 10 5 4 8 14 13 18 18 21 16 16 16 20 17 16 15 14 7 6 14 13 8 12 18 17 24 25 23 23 24
23 23 23 23 24 24 22 20 18 13 8 5 8 9 12 8 3 2 8 13 16 20 19 20 17 17 16 17 14 18 19 12 15 11 15 3 5 10 11 18 25 28 22 20 20
23 23 24 24 25 24 22 20 17 12 7 3 5 9 9 4 6 6 8 8 16 18 21 19 16 15 17 14 21 13 18 17 17 19 12 13 14 8 15 14 20 28 22 20 20
23 23 23 25 26 24 21 20 17 12 8 7 8 10 7 5 9 3 9 11 13 17 19 15 14 16 11 17 15 15 15 20 21 21 18 19 6 4 18 17 19 21 24 21 18
23 24 24 24 26 24 23 16 5 8 10 11 13 11 10 3 3 1 3 7 13 17 12 15 10 15 14 15 16 17 18 19 18 18 21 20 12 14 24 8 23 20 24 22 23
23 24 25 25 27 23 15 5 7 8 10 14 2 8 5 5 8 8 7 10 13 11 15 19 13 16 20 22 21 21 21 19 17 19 12 11 20 14 10 13 10 20 24 24 22
23 25 24 25 26 26 10 8 8 8 10 17 7 8 2 6 5 4 8 11 12 14 16 14 19 19 19 20 20 21 21 20 17 20 15 14 16 14 19 13 5 20 23 26 26
24 25 25 26 26 14 11 5 7 8 8 13 11 12 5 7 9 10 9 13 13 16 18 20 14 23 21 19 19 19 20 18 17 16 18 17 15 13 12 9 10 24 23 23 27
24 25 25 27 8 7 3 6 7 3 7 14 10 4 5 5 7 5 4 10 13 16 18 20 21 19 21 21 19 19 16 19 19 18 14 18 9 11 13 16 22 22 24 24 24
25 25 24 10 13 9 9 9 8 4 7 11 10 5 1 11 8 10 1 8 13 12 10 15 20 20 21 17 21 18 18 15 16 19 19 23 14 12 24 17 19 21 22 26 24
24 25 23 6 8 11 8 9 5 8 4 7 6 7 11 10 5 5 7 8 11 10 14 16 18 15 19 20 16 16 18 17 18 15 17 21 20 16 20 21 18 27 29 28 27
24 24 16 10 8 11 9 8 8 9 10 9 7 7 9 12 6 6 10 12 10 10 14 16 18 18 13 15 19 17 13 13 15 14 18 19 20 14 14 26 21 17 27 26 27
26 23 9 11 10 9 7 9 9 5 15 7 2 2 6 7 8 4 5 9 11 7 13 14 13 22 18 16 14 17 19 14 18 15 18 20 20 17 23 25 28 28 19 21 27
28 9 10 7 7 5 8 9 9 12 16 10 11 8 10 8 4 2 8 13 6 8 10 10 14 15 13 21 18 20 20 21 23 22 17 17 18 24 20 21 29 19 17 13 17
8 10 3 8 4 7 8 7 10 14 11 8 8 9 11 3 10 5 6 7 2 7 9 10 15 16 16 7 12 16 17 18 15 22 24 18 20 13 19 17 17 19 21 22 17
6 6 7 7 5 8 8 7 9 11 10 9 12 12 11 11 11 9 9 5 4 4 3 9 10 16 18 13 12 13 15 19 17 16 18 16 16 16 12 21 19 21 21 16 15
8 3 7 4 8 2 11 10 4 10 3 5 3 6 6 9 11 13 9 4 9 11 8 11 9 12 18 18 21 14 20 19 14 18 15 15 17 22 11 7 19 18 25 25 29
8 4 5 8 7 7 4 9 9 12 11 9 7 7 8 8 6 8 9 8 10 3 7 8 8 13 16 15 17 20 18 20 21 20 20 16 13 24 18 11 9 16 12 13 25
8 3 5 8 10 11 7 9 5 9 10 11 10 7 7 6 6 7 6 4 0 6 7 4 12 17 16 16 16 13 14 19 21 17 17 20 23 21 16 6 14 10 6 9 13
5 7 5 9 9 8 13 14 12 10 12 5 0 4 9 10 13 9 10 10 8 8 7 7 15 17 21 24 19 21 20 18 19 24 22 19 23 22 6 23 12 21 20 8 11
7 7 8 8 6 7 4 8 8 10 6 7 12 14 12 13 11 14 18 11 12 11 7 13 15 16 20 20 18 22 23 20 20 22 23 28 25 20 15 16 22 16 21 17 10
3 2 4 5 9 7 9 10 7 6 4 6 9 10 9 12 14 15 15 16 13 14 12 11 10 9 18 20 16 20 20 21 19 21 21 21 18 17 15 10 16 15 17 23 15
Wind_Direction
347 346 346 343 339 336 331 327 323 318 312 308 307 304 298 295 289 236 237 148 223 165 238 196 209 218 213 221 206 221 263 300 263 178 155 236 146 130 167 148 146 158 140 148 152
345 345 344 341 339 335 331 326 322 318 309 302 300 299 291 293 265 256 204 127 107 74 209 210 196 208 214 220 212 217 263 292 320 62 274 207 150 165 149 115 116 96 120 144 158
344 343 341 339 338 335 330 325 320 314 305 298 294 289 281 275 273 190 132 148 157 220 239 220 203 203 217 214 227 229 252 88 283 281 208 222 153 140 147 151 137 136 142 153 159
341 340 338 337 336 333 329 324 318 310 301 291 286 275 257 243 321 112 162 181 187 234 229 254 209 210 220 225 239 237 243 277 333 319 141 11 327 306 85 6 171 140 147 154 168
337 337 336 334 332 331 328 325 320 313 298 285 267 245 232 218 252 144 166 171 196 203 219 231 213 215 222 231 235 239 249 276 174 202 98 134 27 261 121 155 160 135 154 159 171
334 334 334 332 331 330 327 326 322 315 299 271 235 195 242 250 66 125 200 160 199 198 216 236 213 223 233 248 247 254 237 235 187 269 169 171 190 264 142 206 154 139 161 167 175
332 333 333 331 329 329 325 323 319 316 301 289 205 226 252 297 328 294 202 204 203 198 212 231 229 233 236 253 281 280 271 256 229 207 235 172 18 52 103 168 140 146 165 173 191
330 332 331 330 326 326 321 318 309 301 297 240 201 244 281 40 313 235 219 205 187 193 223 224 230 242 249 263 267 265 253 257 246 221 215 215 214 208 143 138 154 147 166 178 190
330 330 330 328 323 323 320 311 293 281 266 240 237 226 241 144 212 138 266 199 169 194 222 251 217 245 243 254 257 240 244 233 251 208 209 209 143 104 345 271 161 159 162 179 189
329 328 329 327 321 322 319 283 298 272 221 233 257 259 230 124 59 256 230 225 184 194 208 231 217 230 228 232 230 239 222 244 231 246 199 206 99 149 206 274 157 167 158 176 191
328 327 327 326 320 320 327 271 210 196 239 261 178 250 136 121 195 205 167 218 201 192 208 209 210 217 226 230 243 267 281 235 237 231 226 223 130 135 273 260 287 160 163 174 191
327 325 326 324 318 314 280 283 30 330 293 218 253 271 316 296 199 164 216 192 194 209 214 199 229 229 229 237 232 252 265 275 272 251 181 147 161 168 189 237 266 175 178 175 177
325 324 326 323 318 291 260 18 317 305 266 220 209 233 179 233 260 129 209 220 211 221 218 229 224 217 237 235 243 235 250 262 275 281 198 212 155 205 220 358 301 249 181 187 174
323 322 326 326 293 302 224 10 300 325 268 149 181 217 206 243 246 99 299 297 228 248 222 233 242 249 214 240 238 246 245 254 278 280 271 235 216 172 212 171 249 288 175 193 182
320 322 324 324 311 299 359 318 326 225 253 149 113 82 77 233 94 175 109 257 265 243 250 240 237 237 249 227 238 255 258 259 240 267 277 267 257 166 170 186 180 284 216 186 193
317 318 331 256 213 279 316 313 243 234 198 122 121 186 202 206 206 108 209 222 310 301 290 283 286 237 246 252 240 251 252 266 271 256 246 251 263 251 164 178 175 217 246 180 185
317 312 315 306 318 338 311 267 228 252 163 138 175 187 211 162 171 238 220 209 237 222 233 236 252 266 274 248 242 220 239 237 240 238 248 235 243 248 219 166 165 198 246 185 174
316 311 247 252 286 330 275 245 255 39 76 71 5 145 250 165 214 164 267 251 237 279 282 289 227 217 226 230 246 223 226 233 231 237 242 235 249 235 254 187 183 188 194 304 175
311 260 234 215 305 291 269 255 10 12 14 15 329 237 251 154 296 270 249 275 4 48 335 317 258 297 207 222 223 250 222 238 262 266 252 260 232 228 245 249 195 163 150 194 268
309 282 105 327 326 262 255 266 78 34 359 329 308 322 314 182 172 235 238 51 42 58 358 318 313 296 298 239 260 240 264 234 232 252 263 265 258 257 201 229 238 165 169 178 223
254 228 46 336 254 249 262 70 48 70 7 345 349 328 324 316 325 315 302 23 36 299 136 315 286 291 302 266 241 240 258 264 276 239 253 260 259 268 245 201 217 156 158 152 159
293 328 3 298 252 285 44 19 307 25 61 11 302 304 305 308 293 294 296 309 47 349 303 320 317 287 271 274 282 247 271 267 247 246 267 254 258 263 318 267 199 215 168 183 166
286 65 20 318 342 54 113 93 57 3 15 3 336 10 1 318 308 318 308 350 21 27 20 354 287 281 258 263 274 269 242 255 268 262 257 265 237 264 290 309 233 204 220 169 156
279 10 59 59 9 360 353 66 40 65 46 357 335 315 311 306 292 291 285 270 10 285 77 310 266 270 283 294 334 304 269 252 272 259 258 252 264 279 255 325 5 332 260 252 179
331 50 336 16 20 37 20 22 35 9 3 337 104 3 342 318 314 303 302 312 281 192 232 248 268 263 271 283 298 297 280 285 284 259 260 253 246 259 294 1 345 13 341 276 230
1 347 95 24 40 9 47 61 29 13 351 359 343 348 328 308 306 315 307 309 293 314 313 277 269 266 277 273 275 271 279 261 268 280 272 265 265 284 322 73 303 1 359 339 19
24 206 286 183 53 18 25 34 12 15 325 342 338 313 315 336 330 312 301 293 261 261 272 256 274 295 265 274 270 274 255 262 260 265 271 273 270 276 297 32 351 345 9 347 360